Theta_e
313 315 320 320 320 320 321 323 322 320 319 316 316 316 314 311 310 311 311 311 311 311 309 310 309 310 310 311 312 312 314 313 312 311 311 310 309 308 307 307 306 307 306 307
314 316 315 316 318 317 322 324 323 320 316 317 318 319 317 313 312 311 311 312 312 310 307 308 308 308 309 310 310 311 313 313 313 312 312 311 309 307 306 305 304 305 305 306
315 315 314 316 316 317 317 321 319 321 317 315 315 315 315 314 314 311 311 311 312 312 309 307 307 307 308 308 309 311 312 312 313 312 311 310 308 307 305 302 302 302 303 304
315 314 315 315 316 315 317 315 315 320 317 317 315 316 314 315 314 313 312 311 312 311 309 307 306 306 307 308 308 309 310 311 311 311 312 310 309 306 305 302 300 300 300 301
315 313 315 315 315 314 316 313 314 315 317 317 316 316 315 313 316 315 313 311 310 310 308 307 307 306 307 307 307 307 308 309 310 310 310 309 308 307 305 302 299 298 298 298
313 310 312 313 313 313 313 313 313 312 313 310 314 314 313 313 316 316 314 310 309 309 307 307 307 306 306 306 305 305 306 307 308 309 309 309 308 307 303 300 298 296 295 295
312 312 311 311 314 312 313 312 313 311 311 316 313 317 314 313 312 313 313 311 307 308 307 305 303 303 303 304 304 304 304 305 306 307 308 308 308 307 305 301 298 296 294 293
314 315 311 310 312 314 312 312 313 315 317 317 314 318 316 311 309 309 308 308 307 306 306 305 304 303 302 303 303 303 303 303 303 304 305 306 306 305 303 301 298 295 293 292
310 311 308 309 310 312 313 313 311 314 308 313 312 310 308 308 308 307 307 309 307 306 305 304 302 301 301 302 302 302 302 301 301 302 303 303 303 303 301 299 297 295 292 290
308 309 309 310 310 310 312 311 315 312 312 315 312 311 313 310 312 309 306 305 305 304 302 299 299 299 301 302 302 301 301 300 299 299 299 300 300 299 299 297 295 292 289 288
306 307 307 310 311 311 312 312 312 311 311 316 315 312 306 309 307 308 305 304 304 302 300 298 297 299 301 301 301 300 299 298 297 296 296 297 297 297 297 296 292 288 287 286
305 307 307 306 307 308 309 311 312 314 313 310 312 313 308 305 306 305 304 303 303 301 298 297 297 297 298 299 299 299 297 297 296 295 294 294 294 294 293 293 291 289 286 285
306 302 301 306 302 306 309 309 310 311 310 313 314 312 305 305 306 304 303 302 303 300 297 295 294 294 295 296 296 297 296 295 294 293 292 291 291 291 291 290 288 286 285 285
307 306 305 307 303 305 309 309 309 311 314 314 313 313 311 308 306 304 302 301 301 300 299 296 294 294 293 293 294 294 294 294 293 291 290 290 289 289 289 288 286 285 285 284
308 302 303 306 305 307 307 307 307 309 311 313 312 311 311 310 309 308 302 302 300 300 298 297 296 294 292 291 291 291 292 292 291 290 289 288 288 288 287 286 285 285 284 284
304 310 307 309 307 306 307 307 308 307 307 307 308 310 309 309 305 305 304 304 301 300 300 299 296 294 292 291 290 289 290 290 290 289 288 288 287 286 286 285 285 284 284 283
303 306 306 308 303 305 308 307 307 306 306 306 306 306 305 305 305 306 305 303 301 301 300 299 297 296 295 293 291 289 288 288 288 287 286 286 285 284 284 284 284 284 284 283
300 300 299 300 292 303 303 302 304 306 305 305 305 305 305 305 304 303 303 303 303 302 300 299 299 298 296 294 291 290 288 287 286 285 284 284 284 283 283 283 283 283 283 283
300 299 293 300 301 301 300 299 303 305 306 304 304 305 304 304 301 302 301 300 301 302 302 301 301 299 298 295 292 290 287 285 284 284 283 283 283 282 282 282 282 282 282 282
297 300 293 286 290 292 298 299 298 300 301 301 302 303 303 301 303 303 299 299 299 299 299 299 300 300 298 295 292 288 286 284 284 284 283 283 283 282 281 281 281 281 281 281
296 297 299 298 295 290 294 294 297 297 297 298 301 301 300 300 299 299 298 297 297 297 297 298 300 299 298 294 290 287 286 284 285 284 283 282 282 281 281 281 280 280 280 280
289 292 292 294 295 293 293 295 296 295 298 298 299 298 298 297 297 297 297 295 295 295 297 298 296 297 296 293 289 287 285 286 284 283 282 281 281 281 280 280 279 279 279 279
286 290 289 292 293 291 294 299 295 294 295 293 292 292 293 294 295 296 295 296 294 295 296 297 296 295 294 291 289 287 287 285 283 282 281 281 281 280 280 279 279 278 278 278
286 283 289 289 292 292 292 292 291 292 291 291 292 293 293 294 295 295 295 295 292 294 294 296 295 292 291 291 289 288 287 285 283 281 281 280 280 280 279 279 279 278 278 277
288 287 287 292 293 293 293 294 294 293 293 292 291 291 291 292 294 294 294 293 291 292 293 294 293 292 291 290 289 287 286 284 282 281 280 280 280 279 278 279 278 278 278 279
288 291 291 291 291 292 292 292 291 290 291 290 289 290 290 291 292 293 294 294 293 292 293 292 292 291 291 289 288 286 285 284 281 280 280 279 279 278 278 278 278 278 278 278
Wind_Speed
3 5 4 7 4 3 4 3 3 3 1 3 6 7 7 8 7 9 9 10 12 13 11 17 15 13 13 15 16 16 18 17 18 20 17 13 11 6 4 3 2 2 2 3
5 1 2 4 2 4 3 2 1 1 2 3 6 10 11 10 12 14 15 16 16 9 7 16 19 17 16 16 17 17 16 18 18 18 16 10 13 7 5 4 3 2 2 3
3 2 2 4 3 3 1 2 3 2 1 2 5 8 6 7 15 13 16 15 17 17 16 13 19 22 18 18 17 17 18 17 17 15 17 11 11 9 7 4 3 3 3 4
2 3 3 3 2 3 1 4 2 4 2 3 2 5 6 4 7 11 16 15 14 14 12 13 18 21 24 21 18 16 17 17 14 16 15 17 15 13 10 8 5 4 4 4
3 1 3 2 3 4 5 1 1 2 3 1 3 0 7 4 6 8 12 14 12 14 15 14 20 23 26 23 21 18 17 16 15 15 16 17 15 15 12 11 8 5 4 5
3 0 3 5 3 4 2 3 5 4 2 2 4 5 5 4 5 3 4 9 10 11 13 14 19 24 27 24 21 18 17 17 17 17 18 19 19 18 16 15 11 8 7 7
2 1 1 1 1 2 2 5 3 4 2 5 1 3 8 7 9 7 7 8 10 9 12 12 15 22 26 27 23 21 20 19 19 20 20 21 20 20 19 20 16 13 11 11
4 3 8 5 6 6 6 7 4 4 2 4 2 6 6 5 5 4 5 5 6 8 11 14 19 21 24 28 26 24 23 21 20 20 20 20 20 19 20 21 17 15 14 13
5 4 2 2 3 7 4 4 5 2 1 1 4 7 9 5 6 5 7 3 6 7 10 12 15 21 26 29 29 27 24 22 21 21 20 20 21 21 21 20 18 17 16 16
4 2 2 1 2 2 6 4 1 1 3 5 5 5 7 5 4 3 7 8 6 6 6 7 13 19 26 29 28 25 24 24 23 21 21 22 21 22 21 21 20 19 19 19
6 3 3 2 6 9 2 3 3 4 5 4 3 5 6 6 7 5 8 8 9 8 9 9 14 24 30 30 29 28 27 26 24 23 23 23 23 23 23 22 20 20 19 19
6 4 5 9 5 4 3 9 8 5 5 4 3 12 3 8 6 6 8 9 6 6 8 8 15 22 26 29 30 30 29 28 26 24 24 24 24 24 25 25 25 24 23 20
5 2 1 8 5 2 6 5 7 6 1 12 7 10 3 4 5 6 8 7 6 7 7 7 10 16 21 27 31 32 31 30 28 27 26 25 26 26 27 27 27 27 27 25
2 4 7 8 4 2 5 15 7 11 10 19 16 24 22 9 7 7 7 8 8 9 10 9 8 16 20 25 30 33 33 32 31 30 29 29 28 28 28 29 29 28 26 26
1 3 1 9 8 2 3 5 5 7 16 14 24 19 30 21 14 14 9 9 9 8 9 13 13 13 19 24 30 32 35 35 34 33 32 32 31 30 30 30 30 28 28 27
4 2 2 15 18 12 14 16 18 19 17 13 19 21 27 24 9 5 11 12 7 10 15 14 13 17 24 31 32 33 36 39 38 38 38 36 35 33 34 33 32 31 29 27
1 2 0 14 3 5 10 24 22 20 21 17 19 25 26 24 11 12 12 9 10 15 14 16 18 24 31 33 36 36 36 37 40 38 36 38 37 37 36 35 34 33 32 30
6 4 2 3 3 13 9 0 12 22 24 22 21 23 27 28 19 8 8 9 13 12 12 14 17 25 30 33 32 32 35 39 39 36 36 38 39 39 39 39 38 36 34 33
11 6 3 5 5 14 18 8 4 6 11 12 13 19 22 21 12 17 5 5 10 14 13 20 27 33 31 32 35 36 35 36 35 36 39 41 41 40 41 40 39 38 36 33
6 8 4 2 3 9 24 1 4 3 18 17 16 15 9 5 8 8 5 6 9 15 19 20 25 29 26 33 35 33 32 34 34 38 42 41 44 42 42 42 39 39 37 34
5 4 14 12 9 9 6 7 5 8 23 5 3 0 4 4 5 9 12 7 10 15 22 26 28 24 32 27 32 30 30 34 43 36 35 39 42 41 40 40 39 38 36 31
9 7 5 4 5 11 6 2 9 6 4 5 4 5 11 16 16 12 15 8 9 9 18 25 19 24 25 26 31 28 32 41 32 34 36 37 39 37 36 37 35 37 35 33
3 8 6 11 9 6 4 5 5 4 7 15 12 10 11 17 16 13 14 15 9 14 18 27 22 23 21 26 32 28 36 28 31 32 33 36 39 39 37 38 35 33 33 31
4 5 6 2 14 15 17 14 10 12 16 8 10 16 15 19 20 19 14 13 7 14 18 27 23 19 22 29 35 36 25 32 36 36 34 34 36 36 38 35 36 33 32 28
6 4 5 16 15 16 22 21 21 22 20 16 12 10 11 13 16 14 12 10 8 14 21 25 22 22 27 32 35 32 30 34 35 34 33 33 33 34 34 35 36 34 36 38
6 12 9 18 21 20 31 26 14 14 19 14 8 13 14 13 20 16 16 19 21 20 22 22 26 25 28 29 32 31 34 39 35 29 30 32 32 32 30 29 25 24 28 27
Wind_Direction
17 81 160 193 205 110 140 150 182 258 290 178 248 268 247 214 221 229 213 212 216 223 198 205 203 200 198 196 193 189 183 180 179 168 161 156 152 159 188 184 166 145 133 140
26 60 246 201 260 87 117 102 260 330 344 186 279 266 254 193 219 218 212 214 217 209 177 194 201 201 201 200 196 193 190 187 191 184 182 187 168 169 209 187 156 124 126 132
108 328 160 107 105 88 352 186 224 248 319 320 334 281 256 242 220 210 219 220 215 203 190 190 194 197 198 202 196 191 192 194 200 204 195 180 165 164 190 194 171 135 134 121
256 303 114 140 116 107 286 272 148 154 121 241 82 286 293 268 251 222 227 220 210 202 196 188 186 193 199 199 196 194 195 193 187 193 207 191 190 182 206 205 184 163 152 142
264 1 122 102 197 158 235 198 186 194 222 317 231 169 272 292 271 243 231 223 211 197 186 186 188 191 197 194 194 198 199 199 195 196 207 201 196 201 194 188 183 170 158 150
199 169 145 201 219 181 216 62 26 27 62 341 230 166 278 242 219 280 258 221 206 185 185 186 185 185 191 194 197 200 202 203 204 208 208 211 208 200 184 188 188 178 170 157
29 275 326 126 119 39 123 70 326 343 335 236 188 188 255 268 260 234 264 247 212 182 177 174 172 179 184 194 196 197 200 201 204 204 212 213 218 217 210 199 193 182 177 166
175 296 183 190 177 186 198 166 180 245 241 288 90 238 250 243 307 286 304 297 208 181 187 189 187 181 183 193 198 200 200 199 200 202 202 202 205 207 204 199 195 192 185 176
168 257 294 184 145 152 211 186 183 345 116 303 239 282 290 304 271 254 269 291 228 202 193 189 178 181 186 195 203 204 204 204 202 200 199 197 200 200 196 198 200 196 186 176
206 261 201 270 126 221 166 163 153 7 261 255 267 262 238 281 303 263 249 247 238 198 187 173 181 186 193 203 207 207 211 210 207 203 202 199 192 193 196 200 199 194 186 183
168 159 267 138 206 182 158 208 208 177 185 217 282 260 222 252 227 249 257 235 213 206 193 184 190 195 202 206 206 206 209 210 208 206 203 200 197 196 195 197 195 192 187 185
208 188 220 228 254 244 239 222 190 194 226 233 225 260 258 248 243 214 255 252 230 196 194 199 196 196 201 206 206 207 209 209 211 209 206 204 202 197 195 193 192 189 186 186
192 239 2 324 338 322 224 204 226 251 124 238 233 264 331 287 283 263 267 265 243 207 198 199 198 203 205 206 208 210 210 212 211 208 207 205 203 201 200 196 190 186 185 184
171 196 184 213 196 153 204 233 233 226 242 250 242 261 253 260 283 285 282 263 236 217 207 204 213 216 212 210 210 212 214 213 210 207 208 208 206 205 202 196 191 188 188 186
48 216 248 258 261 265 251 259 260 242 246 242 255 248 267 256 254 263 238 255 237 221 213 219 220 213 213 214 215 215 217 214 211 208 210 211 209 206 201 197 193 191 191 190
13 256 255 265 271 262 263 261 243 240 250 261 259 265 257 275 277 272 251 252 252 229 227 225 219 214 216 215 214 210 212 213 212 211 210 210 208 203 201 197 194 192 194 192
129 247 199 267 16 0 259 236 248 250 249 242 250 253 276 281 263 253 258 260 229 241 230 220 218 218 223 217 212 208 207 208 210 208 209 209 207 204 202 198 195 195 195 193
171 185 196 256 52 260 255 317 241 243 251 252 254 264 266 270 280 256 238 242 260 262 250 234 227 232 232 226 212 210 206 204 204 202 203 206 202 200 201 200 198 198 197 197
210 193 252 241 224 292 297 276 230 183 274 263 252 256 266 278 291 281 290 312 292 286 286 263 250 235 232 218 211 206 200 200 199 198 200 201 199 194 197 196 196 199 197 199
205 223 161 63 214 251 272 299 231 31 281 254 256 257 257 314 266 283 317 323 306 304 303 308 290 254 229 220 210 198 198 198 201 203 202 197 198 196 194 195 195 198 200 200
148 198 223 233 245 275 261 207 148 179 256 47 116 210 296 277 235 285 298 279 274 293 300 310 312 258 239 217 200 200 200 205 209 204 198 196 197 196 197 195 195 195 194 195
166 175 201 215 239 273 214 95 182 221 294 148 196 240 280 277 278 273 273 248 267 283 307 313 303 272 250 222 200 202 207 217 204 197 193 194 194 194 193 192 191 194 191 193
272 193 193 191 214 227 232 239 233 216 272 285 282 275 260 278 284 285 268 276 255 280 291 300 295 280 256 226 213 208 220 203 195 193 194 192 192 192 191 189 188 186 189 188
280 194 234 301 249 263 274 277 252 264 259 265 259 274 275 275 278 277 270 270 259 275 283 297 292 263 244 232 224 226 215 201 192 190 190 189 190 186 189 190 191 187 188 188
204 123 228 257 280 282 269 263 267 268 270 275 274 256 254 270 276 272 267 261 261 258 272 275 266 256 244 237 228 224 213 200 190 189 187 187 190 188 186 190 191 193 199 199
195 240 248 263 260 250 268 266 265 259 270 273 250 278 267 255 272 271 270 273 274 274 270 265 271 264 254 236 231 220 209 200 188 188 185 186 185 185 187 184 185 199 207 202